Location: Male Bielice
(48.6330°N, 18.3330°E)
Time: 08:17:57
(UTC+01:00)

ISS - Visible Passes

Search period start: 17 February 2019 00:00
Search period end: 27 February 2019 00:00
Orbit: 403 x 411 km, 51.6° (Epoch: 17 February)

Date Brightness Start Highest point End Pass type
(mag) Time Alt. Az. Time Alt. Az. Time Alt. Az.
22 Feb -0.5 05:51:52 10° SSE 05:52:52 11° SE 05:53:53 10° ESE visible
24 Feb -1.5 05:43:27 10° SSW 05:46:04 22° SE 05:48:43 10° E visible
25 Feb -1.0 04:52:59 10° S 04:54:47 14° SE 04:56:34 10° ESE visible
26 Feb -2.8 05:36:14 10° SW 05:39:22 43° SSE 05:42:30 10° ENE visible
